Content
SEND FEEDBACK

Daily
Averages
Monthly
Summary
Canada

VANCOUVER - UNIVERSITY, BRITISH COLUMBIA


Home > North America > Canada > British Columbia
Elevation: 249 feet     Latitude: 49 15N     Longitude: 123 15W

WEATHER
 
SELECT A DAY
Number of Records: 194,349;   Date Range: 1/1/95 - 7/23/14
 
SHARE

PRINT THIS DATA

[ ← Previous Day ]
WEATHER ALMANAC - MARCH 19, 2013
[ Next Day → ]
[ °C ]   °F
Weather ElementAverageHighLow
Temperature42 °F51.8 °F (5:00 pm)35 °F (5:00 am)
Dewpoint32 °F41 °F (7:00 pm) (7:00 pm)
Humidity72.6 %93 % (7:00 pm)32 % (5:00 pm)
Barometer28.91 in30.24 in (1:00 am) (7:00 pm)
Wind Speed9.3 mph18.4 mph (5:43 pm)
Wind Gust35.7 mph (5:43 pm)
Weather ElementAverage
Visibility19.5 mi
Wind DirectionESE (100.4 °)

Weather ElementTotal
Precipitation---
Heating Degree Days21.6 (Base 65)
Averaged from 28 records on March 19, 2013
WEATHER CONDITIONS BREAKOUT
WIND DIRECTION BREAKOUT
WEATHER BY HOUR - MARCH 19, 2013
[ °C ]   °F
Local TimeTemperatureDewpointHumidityBarometerVisibilityWind DirectionWind SpeedGust SpeedPrecipitationEventsConditions
1:00 AM37.4 °F32.0 °F81 %30.24 in20.0 miEast (90°)6.9 mphScattered Clouds
2:00 AM35.6 °F32.0 °F87 %30.23 in20.0 miEast (80°)9.2 mphMostly Cloudy
3:00 AM35.6 °F30.2 °F81 %30.22 in20.0 miEast (90°)5.8 mphMostly Cloudy
4:00 AM35.6 °F32.0 °F87 %30.22 in20.0 miEast (100°)6.9 mphMostly Cloudy
5:00 AM35.0 °F31.0 °F82 %30.19 in19.0 miESE (110°)8.1 mphScattered Clouds
5:00 AM35.6 °F32.0 °F87 %30.19 in20.0 miESE (110°)8.1 mphMostly Cloudy
6:00 AM35.6 °F32.0 °F87 %30.18 in20.0 miEast (100°)8.1 mphMostly Cloudy
7:00 AM35.6 °F30.2 °F81 %30.15 in20.0 miEast (80°)6.9 mphMostly Cloudy
8:00 AM37.4 °F30.2 °F75 %30.13 in30.0 miCalmOvercast
9:00 AM39.2 °F32.0 °F75 %30.11 in30.0 miESE (120°)3.5 mphOvercast
10:00 AM42.8 °F32.0 °F66 %30.09 in30.0 miESE (110°)3.5 mphOvercast
11:00 AM44.0 °F32.0 °F50 %30.07 in28.0 miESE (120°)5.8 mphOvercast
11:00 AM44.6 °F32.0 °F61 %30.07 in30.0 miESE (120°)5.8 mphOvercast
12:00 PM46.4 °F30.2 °F53 %30.03 in30.0 miENE (70°)3.5 mphOvercast
1:00 PM46.4 °F28.4 °F50 %30.00 in30.0 miESE (120°)9.2 mphOvercast
2:00 PM48.2 °F30.2 °F50 %29.95 in30.0 miEast (100°)6.9 mphOvercast
3:00 PM48.2 °F30.2 °F50 %29.91 in30.0 miESE (120°)8.1 mphOvercast
4:00 PM48.2 °F32.0 °F54 %29.88 in15.0 miESE (110°)10.4 mphOvercast
5:00 PM51.0 °F30.0 °F32 %29.85 in15.0 miSE (130°)13.8 mphOvercast
5:00 PM51.8 °F30.2 °F44 %29.85 in15.0 miESE (120°)11.5 mph27.6 mphOvercast
5:43 PM46.4 °F0.0 °F10.0 miSE (140°)18.4 mph35.7 mphRainLight Rain
6:00 PM44.6 °F39.2 °F81 %29.83 in8.0 miSE (130°)18.4 mph25.3 mphRainLight Rain
7:00 PM42.8 °F41.0 °F93 %29.79 in8.0 miEast (80°)16.1 mph21.9 mphRainLight Rain
8:00 PM41.0 °F39.2 °F93 %29.74 in8.0 miEast (80°)15.0 mph21.9 mphRainLight Rain
9:00 PM42.8 °F39.2 °F87 %29.70 in10.0 miEast (100°)13.8 mphRainLight Rain
10:00 PM41.0 °F39.2 °F93 %29.65 in10.0 miEast (90°)13.8 mphRainLight Rain
11:00 PM42.0 °F39.0 °F87 %29.61 in10.0 miEast (100°)11.5 mphRainLight Rain
11:00 PM41.0 °F39.2 °F93 %29.61 in10.0 miEast (90°)11.5 mph17.3 mphRainLight Rain
Hourly data recorded from CYVR, located miles away from Vancouver - University, British Columbia







STORIES FROM OUR PARTNERS